Regional Weather Roundup
Issued by NWS Newport/Morehead, NC

Current Version | Previous Version | Text Only | Print | Product List | Glossary On
Versions: 1 2 3 4 5 6 7 8 9 10 11 12 13 14 15 16 17 18 19 20 21 22 23 24 25 26 27 28 29 30 31 32 33 34 35 36 37 38 39 40 41 42 43 44 45 46 47 48 49 50
000
ASUS42 KMHX 010512
RWRMHX
WEATHER ROUNDUP FOR EASTERN NORTH CAROLINA
NATIONAL WEATHER SERVICE NEWPORT/MOREHEAD CITY NC
1200 AM EST SUN MAR 01 2015

NOTE: "FAIR" INDICATES FEW OR NO CLOUDS BELOW 12,000 FEET
WITH NO SIGNIFICANT WEATHER AND/OR OBSTRUCTIONS TO VISIBILITY

NCZ015>017-031-032-045>047-102-103-010600-
NORTH COAST

CITY           SKY/WX    TMP DP  RH WIND       PRES   REMARKS
EDENTON        MOCLDY    28  21  76 NE7       30.70F
ELIZABETH CITY CLEAR     28  21  75 N8        30.72F
KITTY HAWK     CLEAR     33  28  82 N8        30.68F
MANTEO         CLEAR     34  28  80 N13       30.69F

$$

NCZ045>047-081-094-103-104-010600-
CENTRAL COAST

CITY           SKY/WX    TMP DP  RH WIND       PRES   REMARKS
FRISCO         MOCLDY    36  33  89 N12G20    30.66S
SWANQUARTER      N/A     32 N/A N/A NE14      30.62F

$$

NCZ095-097-098-100-101-010600-
SOUTHERN COAST

CITY           SKY/WX    TMP DP  RH WIND       PRES   REMARKS
BEAUFORT       MOCLDY    34  28  79 N15G21    30.64F
CEDAR ISLAND     N/A     36 N/A N/A N13G20    30.68F
JACKSONVILLE   CLOUDY    35  23  61 N10       30.65F
PINEY ISLAND     N/A    N/A N/A N/A MISG      30.65F
WILMINGTON     CLOUDY    38  23  55 NE12      30.62F


$$

NCZ011>013-027>030-043-044-078>080-089-090>093-098-010600-
COASTAL PLAIN

CITY           SKY/WX    TMP DP  RH WIND       PRES   REMARKS
AHOSKIE        CLEAR     26  17  71 N5        30.73F
CLINTON        CLOUDY    36  23  60 NE8       30.65F
ELIZABETHTOWN  LGT RAIN  38  23  54 CALM      30.64F
GOLDSBORO      CLOUDY    32  27  82 VRB6      30.65F
GREENVILLE     CLOUDY    32  21  64 NE5       30.68F
HAVELOCK       MOCLDY    34  25  69 N12       30.66F
KENANSVILLE    CLOUDY    34  20  58 NE3       30.66F
KINSTON        CLOUDY    32  21  63 NE8       30.68F
NEW BERN       MOCLDY    33  23  66 NE9       30.67F
RICHLANDS      CLOUDY    34  21  60 NE12      30.65F
ROCKY MOUNT    PTCLDY    29  20  69 NE5       30.70F
WASHINGTON     CLOUDY    30  21  68 NE6       30.69F
WHITEVILLE     CLOUDY    39  22  50 NE10      30.61F

$$

AMZ130-135-150-152-154-156-158-170-250-252-270-ANZ085-086-088-633-658-670-010600-
MARINE OBSERVATIONS

STATION/POSITION TIME  TEMP    WIND        PRES    WAVE   SWELL
                       AIR SEA DIR/SP/G            HT/PER HT/PER
                 (UTC) (F)     (DEG/KT/KT) (MB)    (FT/S) (FT/S)
CHESAPEAKE LIGHT 0400   31      40/ 12/ 13 1042.0
64 E VA BEACH    0450   45 63   50/ 10/ 16 1039.1    4/ 6   3/ 6
DUCK             0406   34 34   20/ 14/ 17 1039.3
2 E DUCK         0411      34                N/A     4/ 6
10 NE DUCK       0422      37                N/A     5/ 9   2/11
OREGON INLET     0406   35 38  360/ 12/ 16 1039.4
HATTERAS CG      0400   37 39   10/ 17/ 20 1038.6
CAPE LOOKOUT     0500   36      20/ 16/ 20 1037.1
BEAUFORT LAB     0400   34 41   20/ 12/ 15 1037.0
27 SE WRIGHTSVLE NOT AVBL
5 SE WRIGHTSVLE  NOT AVBL
225 S CAPE HAT   0450   65 70   70/ 23/ 27 1033.5   11/ 9   7/ 9
41 SE CHARLESTON 0450   58 68   50/ 25/ 31 1032.0   10/ 9   5/ 9

$$


USA.gov is the U.S. government's official web portal to all federal, state and local government web resources and services.